Regional Weather Roundup
Issued by NWS

Home | Current Version | Previous Version | Graphics & Text | Print | Product List | Glossary On
Versions: 1 2 3 4 5 6 7 8 9 10 11 12 13 14 15 16 17 18 19 20 21 22 23 24 25 26 27 28 29 30 31 32 33 34 35 36 37 38 39 40 41 42 43 44 45 46 47 48 49 50
171
ASUS45 KSLC 291610
RWRUT

UTAH REGIONAL WEATHER ROUNDUP
NATIONAL WEATHER SERVICE SALT LAKE CITY UT
1000 AM MDT MON MAY 29 2017

UTZ001>011-023>025-291700-

NORTHERN UTAH

CITY           SKY/WX    TMP DP  RH WIND       PRES   REMARKS
BRIGHAM CITY   SUNNY     67  37  33 CALM      30.17S
HILL AFB       SUNNY     65  40  39 E12       30.18F
LOGAN          SUNNY     62  44  51 N5        30.21F
OGDEN          SUNNY     68  40  35 N7        30.16F
SALT LAKE CITY MOSUNNY   70  38  31 NW5       30.15F
TOOELE VALLEY  SUNNY     66  46  48 CALM      30.17F
WENDOVER       SUNNY     68  31  25 SE3       30.17S
HEBER CITY     SUNNY     59  36  41 CALM      30.23F
WEST JORDAN    SUNNY     66  46  47 CALM      30.18S

$$

UTZ011>015-024>027-291700-

CENTRAL/NORTHEAST UTAH

CITY           SKY/WX    TMP DP  RH WIND       PRES   REMARKS
PROVO AIRPORT  SUNNY     64  42  44 SW7       30.19S
MOAB/CANYONLAN SUNNY     73  24  16 E9        30.13F
DELTA          SUNNY     64  28  25 CALM      30.18S
PRICE          SUNNY     67  30  25 CALM      30.21S
ROOSEVELT      SUNNY     64  32  29 SE6       30.26S
VERNAL         SUNNY     68  36  30 NE5       30.22F

$$

UTZ013>016-019>022-027-291700-

SOUTHERN UTAH

CITY           SKY/WX    TMP DP  RH WIND       PRES   REMARKS
BRYCE CANYON   SUNNY     62  22  21 N5        30.30F
CEDAR CITY     SUNNY     64  23  21 N3        30.19F
MILFORD        NOT AVBL
ST GEORGE      SUNNY     76  24  14 CALM      30.04S
HANKSVILLE     SUNNY     72  21  15 CALM      30.16F
KANAB          SUNNY     77  21  12 NE6       30.16F
BLANDING       SUNNY     69  25  18 S7        30.27F

$$

REGIONAL REPORTS     COLORADO/ARIZONA

CITY           SKY/WX    TMP DP  RH WIND       PRES   REMARKS
CRAIG, CO      SUNNY     55  34  45 CALM      30.28F
GRAND JUNCTION SUNNY     67  31  26 SE12      30.18F
RIFLE, CO      SUNNY     63  31  30 VRB3      30.23F
MONTROSE, CO   SUNNY     64  25  22 VRB3      30.24F
CORTEZ, CO     SUNNY     66  19  16 S3        30.21F
COLORADO CITY    N/A     81  28  15 CALM      30.15S
PAGE, AZ       SUNNY     72  26  18 NW3       30.12S
GRAND CANYON   MOSUNNY   71  20  14 E13G18    30.22S
KINGMAN, AZ    SUNNY     82  26  13 N7        29.99S
FLAGSTAFF, AZ  SUNNY     67  24  19 E14G21    30.24S

$$

REGIONAL REPORTS    NEVADA/IDAHO/WYOMING

CITY           SKY/WX    TMP DP  RH WIND       PRES   REMARKS
LAS VEGAS, NV  MOSUNNY   85  18   8 SE3       29.92S
ELY, NY        SUNNY     62  27  26 NE6       30.25S
ELKO, NV       SUNNY     64  35  34 CALM      30.19F
POCATELLO, ID  SUNNY     61  46  57 CALM      30.22F
BURLEY, ID     SUNNY     64  47  53 E13       30.18S
FORT BRIDGER,    N/A     56  37  49 E7        30.36S
EVANSTON, WY   SUNNY     56  39  53 NE9       30.32S
ROCK SPRINGS,  MOSUNNY   56  35  45 E7        30.32F
KEMMERER, WY     N/A     54  34  47 E8        30.35S

$$




USA.gov is the U.S. government's official web portal to all federal, state and local government web resources and services.